This demonstration page uses our WeatherBlox Daily Observations layout. Learn more.

Left ArrowRight Arrow

Hourly Observations for September 3, 2019

Temp ( °F °C ) Dew Point ( °F °C ) Humidity (%) Winds ( mph kmh ) Pressure ( in mb ) Visibility ( mi km ) Precip ( " mm )
12:59 am 00:59 Clear 75 23.9 71 21.7 88 88 SW 6 9 30.01 1016 10 16 0.00 0.00
1:59 am 01:59 Clear 75 23.9 71 21.7 88 88 SW 6 9 30.00 1016 10 16 0.00 0.00
2:59 am 02:59 Clear 75 23.9 71 21.7 88 88 WSW 3 6 29.99 1016 10 16 0.00 0.00
3:59 am 03:59 Mostly Clear 75 23.9 71 21.7 88 88 W 5 7 29.99 1016 10 16 0.00 0.00
4:59 am 04:59 Mostly Clear 74 23.3 71 21.7 91 91 Calm 29.99 1016 10 16 0.00 0.00
5:59 am 05:59 Clear 72 22.2 70 21.1 94 94 SE 3 6 30.00 1016 10 16 0.00 0.00
6:59 am 06:59 Partly Cloudy 72 22.2 70 21.1 94 94 Calm 30.02 1017 10 16 0.00 0.00
7:59 am 07:59 Partly Cloudy 76 24.4 73 22.8 91 91 Calm 30.03 1017 10 16 0.00 0.00
8:59 am 08:59 Mostly Sunny 80 26.7 72 22.2 76 76 VRB 5 7 30.03 1017 10 16 0.00 0.00
9:59 am 09:59 Partly Cloudy 82 27.8 73 22.8 74 74 NNW 7 11 30.04 1017 10 16 0.00 0.00
10:59 am 10:59 Partly Cloudy 83 28.3 73 22.8 72 72 N 6 9 30.04 1017 10 16 0.00 0.00
11:59 am 11:59 Partly Cloudy 84 28.9 74 23.3 72 72 NNE 9 15 30.04 1017 10 16 0.00 0.00
12:59 pm 12:59 Partly Cloudy 83 28.3 74 23.3 74 74 NNE 13 20 30.03 1017 10 16 0.00 0.00
1:59 pm 13:59 Mostly Sunny 82 27.8 72 22.2 72 72 NNE 15 24 30.03 1017 10 16 0.00 0.00
2:59 pm 14:59 Partly Cloudy 83 28.3 72 22.2 70 70 NE 16 26 30.02 1017 10 16 0.00 0.00
3:32 pm 15:32 Mostly Cloudy 82 27.8 74 23.3 77 77 ENE 15 24 30.02 1017 10 16 0.00 0.00
3:42 pm 15:42 Mostly Cloudy 81 27.2 74 23.3 79 79 ENE 14 22 30.02 1017 10 16 0.00 0.00
3:59 pm 15:59 Mostly Cloudy 81 27.2 74 23.3 79 79 ENE 15 24 30.02 1017 10 16 0.00 0.00
4:10 pm 16:10 Partly Cloudy 81 27.2 74 23.3 79 79 ENE 13 20 30.02 1017 10 16 0.00 0.00
4:18 pm 16:18 Mostly Cloudy 81 27.2 74 23.3 79 79 E 14 22 30.03 1017 10 16 0.00 0.00
4:50 pm 16:50 Mostly Cloudy 81 27.2 74 23.3 79 79 E 10 17 30.02 1017 10 16 0.00 0.00
4:59 pm 16:59 Mostly Cloudy 80 26.7 73 22.8 79 79 ENE 14 22 30.02 1017 10 16 0.00 0.00
5:59 pm 17:59 Partly Cloudy 79 26.1 72 22.2 79 79 E 14 22 30.02 1017 10 16 0.00 0.00
6:59 pm 18:59 Mostly Sunny 78 25.6 72 22.2 82 82 E 9 15 30.03 1017 10 16 0.00 0.00
7:59 pm 19:59 Mostly Clear 77 25 72 22.2 85 85 ESE 5 7 30.03 1017 10 16 0.00 0.00
8:59 pm 20:59 Clear 76 24.4 72 22.2 88 88 SE 3 6 30.03 1017 10 16 0.00 0.00
9:59 pm 21:59 Mostly Clear 74 23.3 72 22.2 94 94 Calm 30.04 1017 10 16 0.00 0.00
10:59 pm 22:59 Mostly Clear 75 23.9 72 22.2 90 90 Calm 30.03 1017 10 16 0.00 0.00
11:59 pm 23:59 Clear 74 23.3 72 22.2 94 94 Calm 30.01 1016 9 14 0.00 0.00

Powered by AerisWeather